[[{"header":{"parameterUnit":"m.s-1","parameterCategory":1,"la1":30.2991,"la2":30.254,"lo1":-89.0895,"lo2":-89.0444,"dy":0.0017,"dx":0.0017,"nx":28,"ny":28,"refTime":"2024-12-19T09:00:00:Z","depth":0,"parameterNumber":2,"parameterNumberName":"U-component_of_WINDS"},"data":[0,0,0,0,0,0,0,0,0,0,0,0,0,0,0,0,0,0,0,0,0,0,0,0,0,0,0,0,0,0,0,0,0,0,0,0,0,0,0,0,0,0,0,0,0,0,0,0,0,0,0,0,0,0,0,0,0,0,-0.2703,-0.2703,0,-0.2741,-0.2741,-0.2742,-0.2742,-0.2741,-0.2741,-0.274,-0.2781,-0.2783,-0.2784,0,0,0,0,0,0,0,0,0,0,0,0,0,-0.2631,-0.2632,-0.2703,-0.2703,-0.2704,-0.2741,-0.2741,-0.2742,-0.2742,-0.2741,-0.2741,-0.274,-0.2781,-0.2783,-0.2785,0,0,0,0,0,0,0,0,0,0,0,0,0,-0.2665,-0.2633,-0.2702,-0.2708,-0.2709,-0.2741,-0.2741,-0.2742,-0.2742,-0.2741,-0.2741,-0.274,-0.278,-0.2783,-0.2785,-0.2814,0,0,-0.2792,-0.2793,0,0,0,0,0,0,0,0,-0.2663,-0.2668,-0.2707,-0.2708,-0.2709,-0.2736,-0.2731,-0.2766,-0.2742,-0.273,-0.274,-0.274,-0.2767,-0.277,-0.2779,-0.2816,-0.2818,-0.2792,-0.2794,-0.2795,-0.2795,0,0,0,0,0,0,0,-0.2661,-0.2666,-0.2718,-0.2707,-0.2709,-0.2709,-0.2713,-0.2738,-0.2752,-0.2731,-0.2731,-0.2735,-0.2767,-0.2777,-0.278,-0.2818,-0.2792,-0.2794,-0.2796,-0.2797,-0.2881,-0.2881,0,0,0,0,0,0,-0.2657,-0.2664,-0.2717,-0.2719,-0.2684,-0.2711,-0.2715,-0.2728,-0.2752,-0.2755,-0.2736,-0.2735,-0.2773,-0.2777,-0.2782,-0.2818,-0.2795,-0.2797,-0.2798,-0.288,-0.2881,-0.2882,0,0,0,0,0,0,-0.2655,-0.2662,-0.2715,-0.2691,-0.2698,-0.2713,-0.2727,-0.2729,-0.2739,-0.2756,-0.2758,-0.2743,-0.2773,-0.2778,-0.2806,-0.2819,-0.2798,-0.28,-0.2879,-0.288,-0.2881,-0.289,0,0,0,0,0,0,-0.2653,-0.2661,-0.2672,-0.2692,-0.2699,-0.2738,-0.2728,-0.273,-0.2742,-0.2742,-0.2763,-0.2766,-0.2773,-0.2802,-0.2808,-0.2822,-0.2802,-0.2878,-0.2879,-0.2881,-0.2888,-0.2891,-0.2893,0,0,0,0,0,-0.2651,-0.2673,-0.2673,-0.2679,-0.2714,-0.2739,-0.2744,-0.2751,-0.2743,-0.2755,-0.2766,-0.2765,-0.2816,-0.2805,-0.2812,-0.2826,-0.2877,-0.2879,-0.2881,-0.2887,-0.289,-0.2893,0,0,0,0,0,0,-0.2656,-0.2676,-0.2676,-0.2705,-0.272,-0.2739,-0.2754,-0.2754,-0.2772,-0.2771,-0.2779,-0.2784,-0.2811,-0.2821,-0.2809,-0.2856,-0.2846,-0.2849,-0.2848,-0.2852,-0.2854,-0.2852,-0.2804,0,0,0,0,0,-0.266,-0.2679,-0.2696,-0.272,-0.2728,-0.2739,-0.2751,-0.2755,-0.2771,-0.2778,-0.279,-0.2807,-0.2826,-0.2839,-0.2858,-0.2889,-0.2894,-0.2902,-0.2905,-0.2907,-0.291,-0.2927,-0.2931,-0.2888,-0.2888,-0.2888,0,0,-0.267,-0.2683,-0.2695,-0.2721,-0.2734,-0.2753,-0.2745,-0.2766,-0.2781,-0.2781,-0.2808,-0.2817,-0.2836,-0.2865,-0.2879,-0.2875,-0.2923,-0.2909,-0.2911,-0.2913,-0.2929,-0.2933,-0.2937,-0.2889,-0.2889,-0.2889,0,0,-0.2698,-0.271,-0.2731,-0.2743,-0.2762,-0.2769,-0.2774,-0.2793,-0.2799,-0.2826,-0.2826,-0.2844,-0.2878,-0.2891,-0.2902,-0.2933,-0.2934,-0.2939,-0.2953,-0.297,-0.2973,-0.2976,-0.2988,-0.2992,-0.2942,-0.2942,-0.2942,0,-0.2708,-0.2737,-0.2743,-0.2764,-0.2775,-0.2775,-0.2798,-0.2809,-0.2833,-0.2841,-0.2836,-0.2878,-0.289,-0.2923,-0.293,-0.2939,-0.2945,-0.2938,-0.2972,-0.2975,-0.2978,-0.299,-0.2994,-0.2943,-0.2943,-0.2943,-0.2943,0,-0.2749,-0.2769,-0.2784,-0.2806,-0.282,-0.2841,-0.285,-0.2863,-0.2865,-0.2873,-0.29,-0.2915,-0.2937,-0.2945,-0.2948,-0.2978,-0.2974,-0.297,-0.2961,-0.2983,-0.2994,-0.2998,-0.2944,-0.2943,-0.2943,-0.2943,0,0,-0.2783,-0.2807,-0.2812,-0.2822,-0.2842,-0.2858,-0.2879,-0.29,-0.2911,-0.2927,-0.2945,-0.2973,-0.2969,-0.2982,-0.2986,-0.3,-0.3024,-0.2994,-0.2995,-0.3,-0.3059,-0.3063,-0.3068,-0.3024,-0.3025,-0.3025,-0.3057,0,-0.2814,-0.2851,-0.2856,-0.289,-0.2908,-0.2908,-0.2926,-0.294,-0.2948,-0.2965,-0.2974,-0.2994,-0.2987,-0.2994,-0.3008,-0.3019,-0.3037,-0.3016,-0.3042,-0.3043,-0.3039,-0.3073,-0.3078,-0.3107,-0.3062,-0.3062,-0.3063,0,-0.2855,-0.2871,-0.2906,-0.2923,-0.2931,-0.2947,-0.2967,-0.2983,-0.2999,-0.3003,-0.3016,-0.3018,-0.3041,-0.3029,-0.306,-0.3046,-0.3057,-0.3063,-0.3064,-0.3068,-0.3055,-0.3079,-0.3117,-0.3122,-0.307,-0.3069,-0.3069,0,-0.2877,-0.2908,-0.2933,-0.2941,-0.2961,-0.2973,-0.2981,-0.2996,-0.3008,-0.3025,-0.3033,-0.3052,-0.3063,-0.3078,-0.3085,-0.3075,-0.3115,-0.3104,-0.3121,-0.312,-0.313,-0.313,-0.3171,-0.3135,-0.3135,-0.3135,-0.3135,0,-0.2912,-0.2934,-0.2943,-0.2959,-0.2983,-0.2988,-0.3012,-0.3021,-0.3034,-0.3051,-0.3051,-0.3068,-0.3075,-0.3093,-0.3099,-0.3124,-0.3128,-0.3133,-0.3135,-0.3134,-0.3133,-0.3142,-0.3141,-0.3136,-0.3136,-0.3136,-0.3135,0,-0.2942,-0.2949,-0.2976,-0.2992,-0.2996,-0.3014,-0.3027,-0.3043,-0.3049,-0.3071,-0.3077,-0.3088,-0.3108,-0.3116,-0.3141,-0.3145,-0.3174,-0.3174,-0.3169,-0.317,-0.3186,-0.3185,-0.3236,-0.3243,-0.32,-0.3201,-0.3201,0,-0.2964,-0.2981,-0.2998,-0.3009,-0.3018,-0.3036,-0.3048,-0.3054,-0.3066,-0.3085,-0.3098,-0.3118,-0.3135,-0.3167,-0.3178,-0.3197,-0.3198,-0.3214,-0.3201,-0.3199,-0.3199,-0.3199,-0.32,-0.3217,-0.3218,-0.3218,-0.3218,0,-0.3003,-0.3006,-0.3023,-0.3041,-0.3055,-0.3069,-0.3083,-0.3093,-0.31,-0.3114,-0.3135,-0.3147,-0.3173,-0.3193,-0.3213,-0.3222,-0.3222,-0.3222,-0.3227,-0.3227,-0.3224,-0.3227,-0.3177,-0.3221,-0.3221,-0.3221,-0.3221,-0.322,-0.3031,-0.3046,-0.306,-0.3079,-0.3089,-0.3102,-0.3117,-0.3125,-0.3143,-0.3163,-0.3165,-0.3187,-0.3202,-0.3228,-0.3238,-0.3256,-0.3252,-0.3259,-0.3261,-0.3263,-0.3264,-0.322,-0.3259,-0.3259,-0.3259,-0.3259,-0.3259,0,-0.3071,-0.308,-0.3097,-0.3116,-0.3131,-0.3128,-0.3143,-0.3156,-0.3175,-0.3188,-0.3204,-0.3228,-0.3247,-0.3259,-0.3278,-0.329,-0.329,-0.3295,-0.3295,-0.3297,-0.3266,-0.3261,-0.3295,-0.3295,-0.3295,-0.3295,-0.3295,-0.3295,-0.3094,-0.3119,-0.3122,-0.3152,-0.3161,-0.3183,-0.3192,-0.3204,-0.3214,-0.324,-0.3256,-0.3263,-0.3276,-0.3296,-0.3313,-0.3316,-0.3324,-0.3329,-0.3332,-0.3303,-0.33,-0.3296,-0.3291,-0.333,-0.333,-0.3361,-0.3362,-0.3362]},{"header":{"parameterUnit":"m.s-1","parameterCategory":1,"la1":30.2991,"la2":30.254,"lo1":-89.0895,"lo2":-89.0444,"dy":0.0017,"dx":0.0017,"nx":28,"ny":28,"refTime":"2024-12-19T09:00:00:Z","depth":0,"parameterNumber":3,"parameterNumberName":"V-component_of_WINDS"},"data":[0,0,0,0,0,0,0,0,0,0,0,0,0,0,0,0,0,0,0,0,0,0,0,0,0,0,0,0,0,0,0,0,0,0,0,0,0,0,0,0,0,0,0,0,0,0,0,0,0,0,0,0,0,0,0,0,0,0,-5.1031,-5.1032,0,-5.1142,-5.1143,-5.1145,-5.1129,-5.1127,-5.1125,-5.1123,-5.1233,-5.1237,-5.1242,0,0,0,0,0,0,0,0,0,0,0,0,0,-5.08,-5.0804,-5.103,-5.1032,-5.1033,-5.1142,-5.1143,-5.1145,-5.1129,-5.1127,-5.1125,-5.1122,-5.1231,-5.1237,-5.1242,0,0,0,0,0,0,0,0,0,0,0,0,0,-5.0904,-5.0806,-5.103,-5.1039,-5.104,-5.1142,-5.1144,-5.1145,-5.113,-5.1127,-5.1124,-5.1121,-5.1229,-5.1236,-5.1243,-5.1342,0,0,-5.1264,-5.1267,0,0,0,0,0,0,0,0,-5.0899,-5.0913,-5.1036,-5.1038,-5.104,-5.1119,-5.1102,-5.1211,-5.113,-5.1096,-5.1123,-5.112,-5.1197,-5.1206,-5.1233,-5.1347,-5.1351,-5.1265,-5.1269,-5.1272,-5.1274,0,0,0,0,0,0,0,-5.0891,-5.0908,-5.1074,-5.1038,-5.1041,-5.1035,-5.1047,-5.1123,-5.116,-5.1098,-5.1097,-5.1111,-5.1197,-5.1226,-5.1236,-5.1353,-5.1265,-5.1271,-5.1275,-5.1278,-5.1554,-5.1557,0,0,0,0,0,0,-5.0882,-5.0902,-5.1071,-5.1078,-5.0961,-5.1042,-5.1055,-5.1096,-5.1159,-5.1166,-5.1113,-5.111,-5.1216,-5.1227,-5.1239,-5.136,-5.1272,-5.1279,-5.1283,-5.1551,-5.1555,-5.1559,0,0,0,0,0,0,-5.0878,-5.0898,-5.1066,-5.099,-5.1011,-5.1049,-5.1095,-5.11,-5.1129,-5.1171,-5.1177,-5.1137,-5.1214,-5.123,-5.1317,-5.1364,-5.1282,-5.1288,-5.1548,-5.1552,-5.1557,-5.1602,0,0,0,0,0,0,-5.0871,-5.0896,-5.0935,-5.0991,-5.1015,-5.1144,-5.1098,-5.1104,-5.1142,-5.1138,-5.1194,-5.1201,-5.1213,-5.1307,-5.1324,-5.1372,-5.1294,-5.1544,-5.155,-5.1555,-5.1596,-5.1607,-5.1617,0,0,0,0,0,-5.0863,-5.0941,-5.0937,-5.0957,-5.1065,-5.1146,-5.116,-5.1174,-5.1146,-5.1184,-5.1211,-5.1199,-5.1356,-5.1316,-5.1335,-5.1386,-5.1541,-5.1548,-5.1555,-5.1592,-5.1605,-5.1617,0,0,0,0,0,0,-5.0887,-5.0949,-5.0944,-5.1044,-5.109,-5.1143,-5.1193,-5.1188,-5.1242,-5.1236,-5.125,-5.1263,-5.1352,-5.1377,-5.1332,-5.1485,-5.1444,-5.1455,-5.1465,-5.1479,-5.1489,-5.1481,-5.1299,0,0,0,0,0,-5.0905,-5.0968,-5.1017,-5.11,-5.1124,-5.1154,-5.119,-5.1198,-5.1246,-5.1265,-5.1298,-5.1344,-5.1403,-5.1442,-5.1499,-5.16,-5.1612,-5.1644,-5.1654,-5.1663,-5.1672,-5.1728,-5.1743,-5.1582,-5.1582,-5.1582,0,0,-5.0941,-5.0982,-5.102,-5.1106,-5.1143,-5.1207,-5.1171,-5.1239,-5.1287,-5.1274,-5.136,-5.1386,-5.1438,-5.1533,-5.1576,-5.1557,-5.172,-5.1672,-5.1678,-5.1683,-5.1737,-5.1752,-5.1766,-5.1587,-5.1586,-5.1585,0,0,-5.1039,-5.1076,-5.115,-5.1189,-5.1246,-5.1266,-5.1284,-5.1338,-5.1356,-5.1442,-5.1435,-5.149,-5.1592,-5.163,-5.1663,-5.1777,-5.1768,-5.1795,-5.1849,-5.1904,-5.1917,-5.1928,-5.197,-5.1984,-5.1805,-5.1805,-5.1805,0,-5.1076,-5.1173,-5.1188,-5.1259,-5.1297,-5.1291,-5.1366,-5.1401,-5.1473,-5.1499,-5.1477,-5.1607,-5.1641,-5.1745,-5.1773,-5.1799,-5.182,-5.1789,-5.1914,-5.1925,-5.1936,-5.1976,-5.1992,-5.1808,-5.1807,-5.1807,-5.1807,0,-5.1216,-5.1284,-5.1336,-5.1409,-5.1452,-5.1524,-5.155,-5.1592,-5.1596,-5.1618,-5.1706,-5.1748,-5.1814,-5.1839,-5.1842,-5.1944,-5.193,-5.1911,-5.187,-5.1954,-5.1992,-5.2007,-5.1812,-5.1811,-5.181,-5.1809,0,0,-5.1332,-5.1414,-5.1433,-5.1466,-5.153,-5.1581,-5.1653,-5.172,-5.1756,-5.1806,-5.1866,-5.1954,-5.1937,-5.1974,-5.1981,-5.2029,-5.2118,-5.2004,-5.2005,-5.2024,-5.2234,-5.2249,-5.2266,-5.2112,-5.2115,-5.2118,-5.223,0,-5.1437,-5.1566,-5.1583,-5.1697,-5.176,-5.1756,-5.1818,-5.1863,-5.1886,-5.1942,-5.1966,-5.2028,-5.2001,-5.2023,-5.207,-5.2097,-5.2161,-5.2089,-5.2168,-5.2171,-5.2156,-5.2286,-5.2302,-5.2406,-5.2245,-5.2247,-5.2249,0,-5.1577,-5.1634,-5.1755,-5.1811,-5.1838,-5.1894,-5.1957,-5.2011,-5.2061,-5.2075,-5.2117,-5.2119,-5.2192,-5.2148,-5.225,-5.2201,-5.2234,-5.2252,-5.2257,-5.2265,-5.2215,-5.2298,-5.2439,-5.2455,-5.2272,-5.227,-5.2269,0,-5.1651,-5.1757,-5.1844,-5.1872,-5.194,-5.198,-5.2009,-5.2057,-5.2097,-5.2151,-5.2177,-5.2238,-5.2272,-5.2319,-5.2337,-5.2304,-5.2438,-5.2395,-5.2451,-5.2451,-5.2479,-5.2478,-5.2628,-5.25,-5.2499,-5.2499,-5.2499,0,-5.1767,-5.1842,-5.1879,-5.1932,-5.2015,-5.2033,-5.2114,-5.2142,-5.2185,-5.2243,-5.2242,-5.2296,-5.2316,-5.2373,-5.2388,-5.247,-5.2485,-5.2497,-5.25,-5.2498,-5.2496,-5.252,-5.2513,-5.2503,-5.2502,-5.2502,-5.2501,0,-5.1864,-5.1892,-5.1986,-5.2043,-5.2059,-5.2118,-5.2166,-5.2217,-5.224,-5.2313,-5.2331,-5.2366,-5.2434,-5.2456,-5.2537,-5.2547,-5.2643,-5.2639,-5.2626,-5.2627,-5.2682,-5.2676,-5.2853,-5.2877,-5.2732,-5.2734,-5.2735,0,-5.1937,-5.1994,-5.2058,-5.2098,-5.213,-5.2194,-5.2235,-5.2254,-5.2297,-5.236,-5.2404,-5.2471,-5.2526,-5.2633,-5.2665,-5.2727,-5.2725,-5.2783,-5.2734,-5.2731,-5.2727,-5.2724,-5.273,-5.2792,-5.2794,-5.2795,-5.2796,0,-5.2063,-5.2075,-5.2135,-5.2201,-5.225,-5.2302,-5.2352,-5.2384,-5.2411,-5.2459,-5.2529,-5.2572,-5.2656,-5.2723,-5.2786,-5.2815,-5.281,-5.2811,-5.2827,-5.2826,-5.2817,-5.2823,-5.2652,-5.2807,-5.2806,-5.2805,-5.2804,-5.2804,-5.2151,-5.2202,-5.2256,-5.2324,-5.2364,-5.2411,-5.2463,-5.2493,-5.2552,-5.2624,-5.2631,-5.2707,-5.2757,-5.2842,-5.2874,-5.2933,-5.2916,-5.294,-5.2946,-5.2951,-5.2956,-5.2807,-5.2944,-5.2944,-5.2943,-5.2943,-5.2943,0,-5.2278,-5.2313,-5.2375,-5.2447,-5.25,-5.2492,-5.2548,-5.2592,-5.266,-5.2707,-5.2762,-5.2843,-5.2908,-5.2946,-5.3011,-5.3051,-5.305,-5.3067,-5.3065,-5.3072,-5.2966,-5.2946,-5.3067,-5.3067,-5.3067,-5.3067,-5.3067,-5.3066,-5.235,-5.2438,-5.2456,-5.2563,-5.2597,-5.2673,-5.2706,-5.2749,-5.2788,-5.2879,-5.2934,-5.2959,-5.3002,-5.3071,-5.313,-5.3139,-5.3164,-5.3183,-5.319,-5.3091,-5.3079,-5.3067,-5.3048,-5.3187,-5.3188,-5.3291,-5.3291,-5.3292]}]]